Simultaneous Nadir Overpasses (SNOs) Predictions

Prediction of SNOs between METOP-B and TERRA Satellite Orbit:

Table of predicted SNOs for the next 14.0 days since TLE Epoch: 10/16/2012
Index Date (METOP-B) Time (METOP-B) METOP-B Lat,Lon Date (TERRA) Time (TERRA) TERRA Lat,Lon Distance(km) Time Diff (sec)
1 10/18/2012 03:34:36 81.26, 173.05 10/18/2012 03:34:56 81.26, 172.89 2.73 20
2 10/18/2012 04:25:16 -81.26, -19.58 10/18/2012 04:24:23 -81.26, -19.47 1.78 53
3 10/20/2012 23:09:01 81.26,-120.67 10/20/2012 23:09:17 81.27,-120.60 1.59 16
4 10/20/2012 23:59:40 -81.27, 47.14 10/20/2012 23:58:44 -81.27, 47.07 1.16 56
5 10/23/2012 18:43:27 81.26, -54.37 10/23/2012 18:43:42 81.26, -54.29 1.55 15
6 10/23/2012 19:34:06 -81.27, 113.48 10/23/2012 19:33:09 -81.27, 113.41 1.20 57
7 10/26/2012 14:17:53 81.26, 11.93 10/26/2012 14:18:10 81.25, 11.80 2.38 17
8 10/26/2012 15:08:32 -81.27, 179.84 10/26/2012 15:07:36 -81.27, 179.91 1.48 56
9 10/29/2012 09:52:17 81.26, 78.64 10/29/2012 09:52:38 81.26, 78.44 3.32 21




NCC Satellite Simultaneous Nadir Overpasses (SNOs) Prediction Service
